Tracking 21076 objects as of 10-Aug-2020
HD Live streaming from Space Station
objects crossing your sky now
Track the most recent launched group of Starlink satellites

COSMOS 1455

Track COSMOS 1455 now!
10-day predictions
COSMOS 1455 is classified as:


NORAD ID: 14032
Int'l Code: 1983-037A
Perigee: 507.3 km
Apogee: 528.7 km
Inclination: 82.5 °
Period: 94.8 minutes
Semi major axis: 6889 km
RCS: 6.2678 m2 (large)
Launch date: April 23, 1983
Source: Commonwealth of Independent States (former USSR) (CIS)
Launch site: PLESETSK MISSILE AND SPACE COMPLEX (PKMTR)
aabbcc
Your satellite tracking list
Your tracking list is empty




NASA's NSSDC Master Catalog

Two Line Element Set (TLE):
1 14032U 83037A   20222.94445894  .00000656  00000-0  30264-4 0  9992
2 14032  82.5151  30.6845 0015574 238.8542 121.1165 15.18337502 35778
Source of the keplerian elements: AFSPC